| time (UTC) | temp F | wind direction | speed knots | gust knots | rain 1hr in | rain 24hr in | rain mn in | humidity % | barometer mb |
| 20260506203053 | 52 | 0 | 0.0 | 2.6 | 0.00 | 0.00 | 0.00 | 72 | 1017.6 |
| 20260506201558 | 52 | 108 | 0.0 | 2.6 | 0.00 | 0.00 | 0.00 | 71 | 1017.5 |
| 20260506200058 | 53 | 150 | 0.0 | 1.7 | 0.00 | 0.00 | 0.00 | 71 | 1017.4 |
| 20260506194604 | 53 | 78 | 0.9 | 2.6 | 0.00 | 0.00 | 0.00 | 70 | 1017.0 |
| 20260506193053 | 53 | 0 | 0.0 | 2.6 | 0.00 | 0.00 | 0.00 | 70 | 1017.0 |
| 20260506191553 | 53 | 288 | 0.9 | 3.5 | 0.00 | 0.00 | 0.00 | 70 | 1016.8 |
| 20260506190056 | 53 | 30 | 0.9 | 3.5 | 0.00 | 0.00 | 0.00 | 70 | 1016.8 |
| 20260506184607 | 53 | 239 | 0.9 | 4.3 | 0.00 | 0.00 | 0.00 | 70 | 1016.5 |
| 20260506183103 | 53 | 333 | 1.7 | 7.0 | 0.00 | 0.00 | 0.00 | 69 | 1016.4 |
| 20260506181554 | 54 | 24 | 1.7 | 7.8 | 0.00 | 0.00 | 0.00 | 67 | 1016.2 |
| 20260506180055 | 54 | 328 | 3.5 | 7.8 | 0.00 | 0.00 | 0.00 | 65 | 1015.8 |
| 20260506174555 | 55 | 12 | 1.7 | 7.0 | 0.00 | 0.00 | 0.00 | 67 | 1015.8 |
| 20260506173054 | 55 | 5 | 4.3 | 9.6 | 0.00 | 0.00 | 0.00 | 63 | 1015.7 |
| 20260506171555 | 56 | 355 | 2.6 | 7.8 | 0.00 | 0.00 | 0.00 | 61 | 1015.6 |
| 20260506170107 | 57 | 360 | 3.5 | 8.7 | 0.00 | 0.00 | 0.00 | 63 | 1015.4 |
| 20260506164556 | 56 | 26 | 3.5 | 8.7 | 0.00 | 0.00 | 0.00 | 64 | 1015.2 |
| 20260506163106 | 56 | 12 | 3.5 | 8.7 | 0.00 | 0.00 | 0.00 | 66 | 1015.0 |
| 20260506161550 | 57 | 355 | 4.3 | 9.6 | 0.00 | 0.00 | 0.00 | 65 | 1014.8 |
| 20260506160056 | 58 | 5 | 4.3 | 9.6 | 0.00 | 0.00 | 0.00 | 64 | 1014.9 |
| 20260506154555 | 57 | 329 | 3.5 | 7.0 | 0.00 | 0.00 | 0.00 | 69 | 1014.9 |
| 20260506153054 | 57 | 338 | 3.5 | 6.1 | 0.00 | 0.00 | 0.00 | 69 | 1015.0 |
| 20260506151555 | 56 | 332 | 3.5 | 7.0 | 0.00 | 0.00 | 0.00 | 70 | 1014.9 |
| 20260506150046 | 56 | 339 | 3.5 | 8.7 | 0.00 | 0.00 | 0.00 | 69 | 1015.0 |
| 20260506144600 | 57 | 338 | 4.3 | 8.7 | 0.00 | 0.00 | 0.00 | 67 | 1014.9 |
| 20260506143050 | 57 | 336 | 5.2 | 10.4 | 0.00 | 0.00 | 0.00 | 67 | 1014.7 |
| 20260506141554 | 56 | 333 | 3.5 | 7.8 | 0.00 | 0.00 | 0.00 | 74 | 1014.9 |
| 20260506140054 | 57 | 333 | 3.5 | 8.7 | 0.00 | 0.00 | 0.00 | 74 | 1014.9 |
| 20260506134551 | 57 | 344 | 3.5 | 8.7 | 0.00 | 0.00 | 0.00 | 72 | 1014.9 |
| 20260506133052 | 57 | 328 | 4.3 | 8.7 | 0.00 | 0.00 | 0.00 | 68 | 1014.9 |
| 20260506131552 | 57 | 343 | 3.5 | 7.8 | 0.00 | 0.00 | 0.00 | 69 | 1014.8 |
| 20260506130059 | 57 | 342 | 4.3 | 7.8 | 0.00 | 0.00 | 0.00 | 67 | 1014.6 |
| 20260506124552 | 58 | 350 | 4.3 | 11.3 | 0.00 | 0.00 | 0.00 | 69 | 1014.6 |
| 20260506123052 | 58 | 9 | 4.3 | 10.4 | 0.00 | 0.00 | 0.00 | 70 | 1014.7 |
| 20260506121554 | 57 | 329 | 5.2 | 8.7 | 0.00 | 0.00 | 0.00 | 70 | 1014.5 |
| 20260506120047 | 58 | 329 | 6.1 | 9.6 | 0.00 | 0.00 | 0.00 | 72 | 1014.5 |
| 20260506114550 | 59 | 336 | 6.1 | 9.6 | 0.00 | 0.00 | 0.00 | 71 | 1014.5 |
| 20260506113052 | 59 | 330 | 5.2 | 10.4 | 0.00 | 0.00 | 0.00 | 71 | 1014.4 |
| 20260506111551 | 59 | 348 | 5.2 | 10.4 | 0.00 | 0.00 | 0.00 | 74 | 1014.4 |
| 20260506110050 | 57 | 350 | 5.2 | 10.4 | 0.00 | 0.00 | 0.00 | 74 | 1014.5 |
| 20260506104553 | 57 | 330 | 5.2 | 10.4 | 0.00 | 0.00 | 0.00 | 75 | 1014.5 |
| 20260506103053 | 57 | 321 | 4.3 | 11.3 | 0.00 | 0.00 | 0.00 | 80 | 1014.5 |
| 20260506101551 | 57 | 349 | 6.1 | 10.4 | 0.00 | 0.00 | 0.00 | 80 | 1014.5 |
| 20260506100050 | 56 | 336 | 4.3 | 9.6 | 0.00 | 0.00 | 0.00 | 83 | 1014.5 |
| 20260506094551 | 55 | 311 | 6.1 | 9.6 | 0.00 | 0.00 | 0.00 | 83 | 1014.4 |
| 20260506093052 | 54 | 344 | 4.3 | 8.7 | 0.00 | 0.00 | 0.00 | 86 | 1014.4 |
| 20260506091559 | 53 | 344 | 4.3 | 8.7 | 0.00 | 0.00 | 0.00 | 87 | 1014.4 |
| 20260506090056 | 53 | 340 | 4.3 | 7.8 | 0.00 | 0.00 | 0.00 | 90 | 1014.3 |
| 20260506084612 | 52 | 332 | 3.5 | 7.0 | 0.00 | 0.00 | 0.00 | 92 | 1014.2 |
| 20260506083056 | 50 | 336 | 3.5 | 7.0 | 0.00 | 0.00 | 0.00 | 93 | 1014.3 |
| 20260506081556 | 49 | 329 | 1.7 | 4.3 | 0.00 | 0.00 | 0.00 | 93 | 1014.1 |
| 20260506073100 | 49 | 330 | 0.9 | 3.5 | 0.00 | 0.00 | 0.00 | 93 | 1014.2 |
| 20260506071553 | 48 | 333 | 1.7 | 3.5 | 0.00 | 0.00 | 0.00 | 93 | 1014.1 |
| 20260506061602 | 47 | 336 | 3.5 | 7.0 | 0.00 | 0.00 | 0.00 | 92 | 1013.9 |
| 20260506050113 | 49 | 360 | 4.3 | 9.6 | 0.00 | 0.00 | 0.00 | 87 | 1013.5 |
| 20260506044552 | 49 | 344 | 3.5 | 7.8 | 0.00 | 0.00 | 0.00 | 87 | 1013.6 |
| 20260506043101 | 49 | 348 | 2.6 | 7.0 | 0.00 | 0.00 | 0.00 | 87 | 1013.6 |
| 20260506041553 | 49 | 326 | 4.3 | 7.8 | 0.00 | 0.00 | 0.00 | 87 | 1013.4 |
| 20260506034551 | 49 | 340 | 3.5 | 5.2 | 0.00 | 0.00 | 0.00 | 87 | 1013.6 |
| 20260506033050 | 49 | 342 | 3.5 | 5.2 | 0.00 | 0.00 | 0.00 | 87 | 1013.7 |
| 20260506031555 | 49 | 335 | 3.5 | 7.0 | 0.00 | 0.00 | 0.00 | 87 | 1013.7 |
| 20260506030056 | 48 | 349 | 2.6 | 5.2 | 0.00 | 0.00 | 0.00 | 87 | 1013.9 |
| 20260506024557 | 49 | 340 | 3.5 | 7.0 | 0.00 | 0.00 | 0.00 | 86 | 1013.9 |
| 20260506023051 | 49 | 348 | 3.5 | 7.0 | 0.00 | 0.00 | 0.00 | 86 | 1014.0 |
| 20260506021601 | 49 | 338 | 4.3 | 7.8 | 0.00 | 0.00 | 0.00 | 86 | 1014.1 |
| 20260506020050 | 48 | 360 | 2.6 | 5.2 | 0.00 | 0.00 | 0.00 | 86 | 1014.2 |
| 20260506014546 | 49 | 342 | 3.5 | 5.2 | 0.00 | 0.00 | 0.00 | 85 | 1014.2 |
| 20260506013057 | 49 | 349 | 3.5 | 8.7 | 0.00 | 0.00 | 0.00 | 84 | 1014.2 |
| 20260506011601 | 49 | 5 | 3.5 | 7.8 | 0.00 | 0.00 | 0.00 | 83 | 1014.3 |
| 20260506010053 | 49 | 340 | 3.5 | 7.8 | 0.00 | 0.00 | 0.00 | 83 | 1014.3 |
| 20260506004548 | 49 | 341 | 4.3 | 8.7 | 0.00 | 0.00 | 0.00 | 82 | 1014.4 |
| 20260506003058 | 50 | 355 | 3.5 | 8.7 | 0.00 | 0.00 | 0.00 | 82 | 1014.4 |
| 20260506001555 | 50 | 22 | 4.3 | 9.6 | 0.00 | 0.00 | 0.00 | 82 | 1014.6 |
| 20260506000049 | 50 | 360 | 4.3 | 10.4 | 0.00 | 0.00 | 0.00 | 82 | 1014.8 |
| 20260505234605 | 50 | 17 | 5.2 | 8.7 | 0.00 | 0.00 | 0.00 | 83 | 1014.8 |
| 20260505233051 | 50 | 27 | 3.5 | 8.7 | 0.00 | 0.00 | 0.00 | 83 | 1014.9 |
| 20260505231604 | 50 | 5 | 5.2 | 12.2 | 0.00 | 0.00 | 0.00 | 81 | 1014.9 |
| 20260505230052 | 50 | 13 | 6.1 | 10.4 | 0.00 | 0.00 | 0.00 | 81 | 1015.1 |
| 20260505224553 | 50 | 352 | 6.1 | 9.6 | 0.00 | 0.00 | 0.00 | 82 | 1014.9 |
| 20260505223103 | 50 | 355 | 4.3 | 9.6 | 0.00 | 0.00 | 0.00 | 82 | 1015.1 |
| 20260505221557 | 50 | 340 | 3.5 | 9.6 | 0.00 | 0.00 | 0.00 | 82 | 1015.2 |
| 20260505220053 | 51 | 5 | 5.2 | 11.3 | 0.00 | 0.00 | 0.00 | 81 | 1015.2 |
| 20260505214614 | 51 | 360 | 5.2 | 9.6 | 0.00 | 0.00 | 0.00 | 81 | 1015.1 |
| 20260505213100 | 51 | 5 | 5.2 | 12.2 | 0.00 | 0.00 | 0.00 | 81 | 1015.4 |
| 20260505211603 | 52 | 25 | 4.3 | 11.3 | 0.00 | 0.00 | 0.00 | 81 | 1015.2 |
| 20260505210052 | 52 | 360 | 5.2 | 13.0 | 0.00 | 0.00 | 0.00 | 80 | 1015.3 |
| 20260505204555 | 52 | 11 | 5.2 | 13.0 | 0.00 | 0.00 | 0.00 | 80 | 1015.3 |